Location: Bastrop State Park
(30.1090°N, 97.2819°W)
Time: 05:20:16
(UTC-05:00)

ISS - Visible Passes

Search period start: 28 July 2014 00:00
Search period end: 07 August 2014 00:00
Orbit: 411 x 420 km, 51.6° (Epoch: 28 July)

Date Brightness Start Highest point End Pass type
(mag) Time Alt. Az. Time Alt. Az. Time Alt. Az.
31 Jul -0.2 05:58:03 10° N 06:00:25 18° NE 06:02:47 10° E visible
01 Aug 0.3 05:10:29 10° NNE 05:11:24 11° NNE 05:12:19 10° NE visible
01 Aug -3.4 21:46:32 10° SSW 21:49:48 60° SE 21:50:20 50° E visible
02 Aug -2.4 05:56:21 10° NW 05:59:38 53° NE 06:02:55 10° ESE visible
02 Aug -2.4 20:58:12 10° S 21:01:04 28° SE 21:03:58 10° ENE visible
02 Aug -0.5 22:35:17 10° W 22:37:46 19° NW 22:40:16 10° N visible
03 Aug -1.0 05:07:50 10° NNW 05:10:46 27° NE 05:13:41 10° E visible
03 Aug -1.5 21:45:47 10° WSW 21:48:51 34° NW 21:51:56 10° NNE visible
04 Aug -0.2 04:19:37 10° N 04:21:48 16° NE 04:23:59 10° ENE visible
04 Aug -2.8 05:55:29 10° WNW 05:58:37 37° SW 06:01:44 10° SSE visible
04 Aug -3.0 20:56:42 10° SW 21:00:00 72° NW 21:03:19 10° NE visible
05 Aug -3.0 05:10:30 55° SSE 05:10:30 55° SSE 05:13:12 10° SE visible
05 Aug 0.0 21:46:30 10° WNW 21:48:08 13° NW 21:49:45 10° N visible
06 Aug -0.5 20:56:30 10° W 20:59:07 21° NW 21:01:46 10° NNE visible
